EDT,Max TemperatureF,Mean TemperatureF,Min TemperatureF,Max Dew PointF,MeanDew PointF,Min DewpointF,Max Humidity, Mean Humidity, Min Humidity, Max Sea Level PressureIn, Mean Sea Level PressureIn, Min Sea Level PressureIn, Max VisibilityMiles, Mean VisibilityMiles, Min VisibilityMiles, Max Wind SpeedMPH, Mean Wind SpeedMPH, Max Gust SpeedMPH,PrecipitationIn, CloudCover, Events, WindDirDegrees
2012-9-1,84,76,66,67,63,59,78,68,54,30.09,29.98,29.88,10,8,6,18,7,25,0.00,3,,96
2012-9-2,75,69,63,65,61,57,88,76,55,30.12,30.08,30.04,10,10,9,8,4,,0.00,3,,88
2012-9-3,73,66,60,63,60,57,94,80,61,30.20,30.16,30.12,10,9,7,17,8,20,0.00,3,,68
2012-9-4,75,72,69,72,70,63,94,90,78,30.14,30.00,29.88,10,5,0,16,8,,0.85,8,Fog-Rain,150
2012-9-5,78,72,68,73,71,66,94,90,82,29.87,29.79,29.76,10,5,1,21,11,26,0.33,6,Rain-Thunderstorm,224
2012-9-6,73,70,66,70,66,63,100,86,68,29.91,29.87,29.81,10,9,1,9,4,,0.00,5,,110
2012-9-7,79,74,69,72,70,66,100,90,74,29.94,29.90,29.87,8,3,0,9,2,,0.00,5,Fog,185
2012-9-8,80,75,66,72,70,61,94,86,74,29.90,29.78,29.64,10,6,2,20,9,30,0.13,6,Rain,177
2012-9-9,75,68,61,60,57,52,90,75,44,29.86,29.81,29.74,10,10,9,10,5,,0.04,2,Rain,347
2012-9-10,73,64,55,57,49,44,84,61,41,30.09,29.94,29.83,10,10,10,18,9,23,0.00,3,,341
2012-9-11,71,58,48,53,47,42,89,62,40,30.28,30.21,30.10,10,10,10,12,7,18,0.00,0,,303
2012-9-12,73,62,50,61,56,48,93,76,57,30.36,30.33,30.29,10,10,9,13,5,,0.00,0,,205
2012-9-13,78,65,55,63,60,54,97,77,64,30.37,30.33,30.29,10,9,2,13,6,,0.00,0,,213
2012-9-14,75,65,57,65,61,55,94,81,70,30.29,30.20,30.10,10,10,8,13,5,,0.00,0,,206
2012-9-15,73,64,55,64,54,47,93,67,42,30.08,30.04,30.00,10,10,7,20,9,28,0.00,2,Rain,307
2012-9-16,73,62,51,53,48,44,90,65,38,30.10,30.06,30.01,10,10,10,15,5,20,0.00,1,,316
2012-9-17,71,60,48,59,52,45,93,73,54,30.11,30.07,30.05,10,10,8,9,4,,0.00,0,,223
2012-9-18,73,64,55,70,65,53,94,82,68,30.06,29.87,29.70,10,6,2,31,16,41,0.16,6,Rain,167
2012-9-19,72,62,53,70,57,42,96,76,38,30.17,29.88,29.71,10,8,0,36,16,45,2.32,5,Fog-Rain,289
2012-9-20,66,57,48,51,48,45,86,70,56,30.22,30.18,30.14,10,10,10,15,10,,0.00,0,,66
2012-9-21,69,60,51,57,51,48,89,78,52,30.15,30.09,30.02,10,10,10,12,6,,0.00,0,,26
2012-9-22,71,62,53,66,57,50,94,84,65,30.01,29.93,29.81,10,9,2,20,7,,0.00,5,,133
2012-9-23,70,58,48,64,51,41,90,68,36,30.10,29.97,29.82,10,10,8,17,9,24,0.03,2,Rain,326
2012-9-24,66,54,45,47,44,41,90,71,45,30.15,30.11,30.08,10,10,10,12,5,,0.00,2,,330
2012-9-25,71,56,42,56,49,40,93,68,47,30.20,30.16,30.14,10,10,7,22,9,29,0.02,0,,223
2012-9-26,73,68,64,65,62,56,90,77,69,30.16,30.08,30.02,10,8,6,20,15,25,0.00,6,,215
2012-9-27,75,70,63,65,60,55,90,77,50,30.21,30.13,30.02,10,8,6,16,6,,0.00,6,Rain,76
2012-9-28,68,64,59,65,58,50,94,81,65,30.21,30.07,29.92,10,8,4,21,13,30,0.03,8,Rain-Thunderstorm,99
2012-9-29,60,58,57,57,55,54,94,91,87,29.92,29.90,29.87,10,7,2,13,7,,0.07,8,Rain,11
2012-9-30,64,60,55,55,53,45,94,83,62,29.88,29.81,29.74,10,8,5,13,6,18,0.00,6,Rain,353